Location: Castle Hill Houses
(40.8186°N, 73.8497°W)
Time: 16:00:05
(UTC+00:00)

STARLINK-1058 - Pass Details

Date: 26 January 2020
Orbit: 549 x 550 km, 53.0° (Epoch: 19 February)

Event Time Altitude Azimuth Distance (km) Brightness Sun altitude
Exits shadow 11:29:05 - 246° (WSW) 2,401 6.4 -8.3°
Reaches altitude 10° 11:30:35 10° 250° (WSW) 1,817 5.8 -8.0°
Maximum altitude 11:34:37 51° 327° (NNW) 699 3.9 -7.3°
Drops below altitude 10° 11:38:39 10° 44° (NE) 1,826 6.6 -6.6°
Sets 11:40:57 0° 49° (NE) 2,723 7.6 -6.2°
